Back to catalog

CZ-2D R/B

AlivePO
NORAD 28738·ROCKET BODY·🇨🇳 China

Launched Jul 5, 2005 from Jiuquan Satellite Launch Center

Loading…

Next Passes (next 24 hours)

TLE

FreshSource: Space-Track

Epoch: Sep 14, 2026, 01:00 UTC

1 28738U 05024B   26257.04224126  .00082300  00000-0  41694-3 0  9992
2 28738  97.3410 281.6139 0003840  78.9139 281.2561 15.81295574169329

Track CZ-2D R/B in real time with AllMySat

Download on the App Store